This demonstration page uses our WeatherBlox Daily Observations layout. Learn more.

Left ArrowRight Arrow

Hourly Observations for February 8, 2018

Temp ( °F °C ) Dew Point ( °F °C ) Humidity (%) Winds ( mph kmh ) Pressure ( in mb ) Visibility ( mi km ) Precip ( " mm )
12:53 am 00:53 Cloudy 20 -6.7 15 -9.4 81 81 SW 6 9 30.36 1028 10 16 0.00 0.00
1:53 am 01:53 Mostly Cloudy 20 -6.7 15 -9.4 81 81 Calm 30.37 1029 10 16 0.00 0.00
2:53 am 02:53 Cloudy 21 -6.1 17 -8.3 85 85 SW 3 6 30.35 1028 10 16 0.00 0.00
3:53 am 03:53 Clear 20 -6.7 16 -8.9 85 85 WSW 6 9 30.35 1028 10 16 0.00 0.00
4:53 am 04:53 Mostly Clear 17 -8.3 15 -9.4 92 92 W 6 9 30.36 1028 10 16 0.00 0.00
5:53 am 05:53 Clear 13 -10.6 10 -12.2 88 88 NNE 7 11 30.35 1028 10 16 0.00 0.00
6:53 am 06:53 Clear 16 -8.9 13 -10.6 88 88 N 5 7 30.33 1027 10 16 0.00 0.00
7:53 am 07:53 Sunny 20 -6.7 17 -8.3 89 89 NE 5 7 30.33 1027 10 16 0.00 0.00
8:53 am 08:53 Sunny 22 -5.6 17 -8.3 82 82 ENE 8 13 30.32 1027 10 16 0.00 0.00
9:53 am 09:53 Sunny 24 -4.4 19 -7.2 81 81 ENE 13 20 30.32 1027 10 16 0.00 0.00
10:53 am 10:53 Sunny 25 -3.9 19 -7.2 78 78 E 9 15 30.31 1027 10 16 0.00 0.00
11:53 am 11:53 Sunny 26 -3.3 19 -7.2 75 75 E 10 17 30.30 1026 10 16 0.00 0.00
12:53 pm 12:53 Sunny 25 -3.9 19 -7.2 78 78 E 10 17 30.24 1024 10 16 0.00 0.00
1:53 pm 13:53 Sunny 26 -3.3 20 -6.7 78 78 ENE 12 19 30.20 1023 10 16 0.00 0.00
2:53 pm 14:53 Sunny 27 -2.8 20 -6.7 75 75 E 9 15 30.16 1021 9 14 0.00 0.00
3:53 pm 15:53 Sunny 26 -3.3 20 -6.7 78 78 ESE 9 15 30.16 1021 10 16 0.00 0.00
4:53 pm 16:53 Sunny 25 -3.9 19 -7.2 78 78 SE 14 22 30.11 1020 9 14 0.00 0.00
5:53 pm 17:53 Hazy 24 -4.4 19 -7.2 81 81 E 6 9 30.11 1020 6 10 0.00 0.00
6:53 pm 18:53 Clear 22 -5.6 18 -7.8 85 85 ENE 8 13 30.10 1019 7 11 0.00 0.00
7:53 pm 19:53 Clear 22 -5.6 17 -8.3 82 82 ENE 8 13 30.09 1019 7 11 0.00 0.00
8:53 pm 20:53 Clear with Mist and Fog 21 -6.1 17 -8.3 85 85 NE 9 15 30.08 1019 6 10 0.00 0.00
9:53 pm 21:53 Mostly Clear with Mist and Fog 20 -6.7 16 -8.9 85 85 NE 12 19 30.09 1019 5 8 0.00 0.00
10:53 pm 22:53 Clear with Mist and Fog 19 -7.2 15 -9.4 84 84 NE 14 22 30.09 1019 5 8 0.00 0.00
11:53 pm 23:53 Mostly Clear with Mist and Fog 18 -7.8 15 -9.4 88 88 NNE 16 26 30.11 1020 5 8 0.00 0.00

Powered by AerisWeather